Location: Newark
(45.2500°N, 7.5833°E)
Time: 10:29:34
(UTC+00:00)

Vanguard 3 - Pass Details

Date: 03 February 2020
Orbit: 508 x 3263 km, 33.3° (Epoch: 19 February)

Event Time Altitude Azimuth Distance (km) Brightness Sun altitude
Rises 20:08:25 0° 278° (W) 7,185 12.9 -36.9°
Reaches altitude 10° 20:14:01 10° 270° (W) 6,206 12.3 -37.9°
Maximum altitude 20:29:44 32° 218° (SW) 4,211 10.7 -40.5°
Enters shadow 20:36:44 24° 182° (S) 4,272 10.5 -41.7°
Drops below altitude 10° 20:42:08 10° 162° (SSE) 4,862 - -42.5°
Sets 20:45:55 0° 152° (SSE) 5,496 - -43.2°
